UAL2392 KEWR-TXKF

Flight info

Callsign UAL2392
Flight time 1h 47m
Altitude 30000
Route KEWR ELVAE NECCK DIXIE Y481 OWENZ Y481 KINGG KINER L461 BOVIC MOMOM1 TXKF
Aircraft B772/H-SDE3E3FGHIRWY/LB1

Departure

Time 2026-04-22 17:55
Airport Newark Liberty International Airport (KEWR)

Arrival

Time 2026-04-22 19:42
Airport L.F. Wade International Airport (TXKF)
Time Latitude Longitude Altitude Speed Heading
2026-04-22 17:30 40.68556 -74.17907 28 ft 0 kts 332°
2026-04-22 17:44 40.68564 -74.17907 33 ft 5 kts 359°
2026-04-22 17:45 40.68578 -74.17852 31 ft 12 kts 85°
2026-04-22 17:45 40.68604 -74.17780 26 ft 4 kts 50°
2026-04-22 17:45 40.68637 -74.17734 30 ft 10 kts 57°
2026-04-22 17:45 40.68624 -74.17635 27 ft 13 kts 114°
2026-04-22 17:46 40.68618 -74.17616 27 ft 2 kts 114°
2026-04-22 17:46 40.68606 -74.17575 28 ft 6 kts 98°
2026-04-22 17:46 40.68638 -74.17526 29 ft 9 kts 26°
2026-04-22 17:46 40.68715 -74.17476 29 ft 15 kts 26°
2026-04-22 17:47 40.68836 -74.17399 30 ft 23 kts 24°
2026-04-22 17:47 40.68990 -74.17303 28 ft 25 kts 26°
2026-04-22 17:47 40.69122 -74.17219 26 ft 19 kts 26°
2026-04-22 17:47 40.69248 -74.17138 27 ft 20 kts 26°
2026-04-22 17:48 40.69301 -74.17104 24 ft 2 kts 26°
2026-04-22 17:48 40.69318 -74.17095 25 ft 5 kts 21°
2026-04-22 17:48 40.69380 -74.17075 24 ft 12 kts
2026-04-22 17:48 40.69485 -74.17073 24 ft 18 kts 356°
2026-04-22 17:49 40.69607 -74.17109 29 ft 18 kts 340°
2026-04-22 17:49 40.69729 -74.17193 30 ft 20 kts 326°
2026-04-22 17:49 40.69817 -74.17304 25 ft 10 kts 311°
2026-04-22 17:49 40.69877 -74.17378 26 ft 14 kts 341°
2026-04-22 17:50 40.69986 -74.17377 27 ft 17 kts
2026-04-22 17:50 40.70088 -74.17367 29 ft 11 kts 351°
2026-04-22 17:50 40.70129 -74.17461 30 ft 16 kts 278°
2026-04-22 17:50 40.70142 -74.17638 26 ft 23 kts 275°
2026-04-22 17:51 40.70155 -74.17861 27 ft 15 kts 275°
2026-04-22 17:51 40.70166 -74.18010 25 ft 10 kts 276°
2026-04-22 17:51 40.70172 -74.18038 25 ft 0 kts 295°
2026-04-22 17:52 40.70181 -74.18053 28 ft 6 kts 313°
2026-04-22 17:53 40.70236 -74.18067 27 ft 11 kts 11°
2026-04-22 17:53 40.70274 -74.18051 27 ft 0 kts 48°
2026-04-22 17:53 40.70277 -74.18030 29 ft 1 kts 95°
2026-04-22 17:53 40.70277 -74.18028 29 ft 0 kts 96°
2026-04-22 17:54 40.70276 -74.18011 28 ft 17 kts 96°
2026-04-22 17:54 40.70244 -74.17516 27 ft 90 kts 95°
2026-04-22 17:54 40.70172 -74.16407 24 ft 154 kts 95°
2026-04-22 17:54 40.70050 -74.14863 434 ft 166 kts 95°
2026-04-22 17:55 40.69970 -74.13878 938 ft 163 kts 106°
2026-04-22 17:55 40.69203 -74.12165 1780 ft 171 kts 140°
2026-04-22 17:55 40.68175 -74.11395 2490 ft 169 kts 163°
2026-04-22 17:55 40.66989 -74.11133 3098 ft 176 kts 184°
2026-04-22 17:56 40.65761 -74.11372 3666 ft 183 kts 199°
2026-04-22 17:56 40.64567 -74.12057 4177 ft 191 kts 207°
2026-04-22 17:56 40.63349 -74.12841 4401 ft 200 kts 221°
2026-04-22 17:56 40.62448 -74.14279 4481 ft 202 kts 239°
2026-04-22 17:57 40.61493 -74.15475 5057 ft 189 kts 214°
2026-04-22 17:57 40.60435 -74.16426 5387 ft 179 kts 229°
2026-04-22 17:57 40.59648 -74.17696 5505 ft 183 kts 239°
2026-04-22 17:57 40.58825 -74.19066 5440 ft 198 kts 231°
2026-04-22 17:58 40.57869 -74.20453 5457 ft 210 kts 226°
2026-04-22 17:58 40.56583 -74.21541 5410 ft 230 kts 209°
2026-04-22 17:58 40.55116 -74.22305 5884 ft 224 kts 204°
2026-04-22 17:58 40.54140 -74.22741 6142 ft 224 kts 201°
2026-04-22 17:59 40.52588 -74.23085 6356 ft 231 kts 186°
2026-04-22 17:59 40.51004 -74.22984 6763 ft 223 kts 178°
2026-04-22 17:59 40.48958 -74.22640 7039 ft 230 kts 178°
2026-04-22 17:59 40.47280 -74.22379 7132 ft 252 kts 178°
2026-04-22 18:00 40.46093 -74.22202 7461 ft 258 kts 178°
2026-04-22 18:00 40.44291 -74.21902 8086 ft 261 kts 176°
2026-04-22 18:00 40.42516 -74.21453 8789 ft 263 kts 164°
2026-04-22 18:00 40.40813 -74.20510 9410 ft 266 kts 162°
2026-04-22 18:01 40.39066 -74.19651 10012 ft 271 kts 166°
2026-04-22 18:01 40.37265 -74.18866 10502 ft 276 kts 166°
2026-04-22 18:01 40.35445 -74.18094 10958 ft 281 kts 166°
2026-04-22 18:01 40.33564 -74.17305 11454 ft 286 kts 166°
2026-04-22 18:02 40.31630 -74.16519 11975 ft 288 kts 171°
2026-04-22 18:02 40.29671 -74.16084 12469 ft 290 kts 178°
2026-04-22 18:02 40.27762 -74.15820 13009 ft 294 kts 179°
2026-04-22 18:02 40.25720 -74.15736 13563 ft 294 kts 188°
2026-04-22 18:03 40.23672 -74.15921 14095 ft 295 kts 190°
2026-04-22 18:03 40.21616 -74.16111 14573 ft 298 kts 189°
2026-04-22 18:03 40.19527 -74.16234 15023 ft 302 kts 187°
2026-04-22 18:03 40.17415 -74.16303 15462 ft 305 kts 187°
2026-04-22 18:04 40.15286 -74.16349 15866 ft 308 kts 186°
2026-04-22 18:04 40.13129 -74.16337 16224 ft 312 kts 176°
2026-04-22 18:04 40.11053 -74.15387 16538 ft 324 kts 147°
2026-04-22 18:04 40.09473 -74.13295 16932 ft 328 kts 119°
2026-04-22 18:05 40.08659 -74.10532 17254 ft 327 kts 103°
2026-04-22 18:05 40.08120 -74.07608 17531 ft 335 kts 101°
2026-04-22 18:05 40.07569 -74.04609 17839 ft 343 kts 102°
2026-04-22 18:05 40.06974 -74.01571 18288 ft 347 kts 103°
2026-04-22 18:06 40.06364 -73.98548 18781 ft 349 kts 104°
2026-04-22 18:06 40.05730 -73.95449 19216 ft 349 kts 104°
2026-04-22 18:06 40.05098 -73.92375 19560 ft 352 kts 104°
2026-04-22 18:06 40.04463 -73.89278 19859 ft 356 kts 104°
2026-04-22 18:07 40.03828 -73.86174 20169 ft 360 kts 103°
2026-04-22 18:07 40.03182 -73.83013 20509 ft 362 kts 103°
2026-04-22 18:07 40.02530 -73.79820 20871 ft 364 kts 103°
2026-04-22 18:07 40.01867 -73.76577 21251 ft 366 kts 103°
2026-04-22 18:08 40.01216 -73.73395 21605 ft 369 kts 103°
2026-04-22 18:08 40.00553 -73.70156 21947 ft 371 kts 103°
2026-04-22 18:08 39.99883 -73.66891 22277 ft 374 kts 103°
2026-04-22 18:08 39.99206 -73.63592 22617 ft 377 kts 103°
2026-04-22 18:09 39.98525 -73.60277 22938 ft 380 kts 103°
2026-04-22 18:09 39.97837 -73.56940 23274 ft 383 kts 103°
2026-04-22 18:09 39.97139 -73.53559 23627 ft 385 kts 103°
2026-04-22 18:09 39.96439 -73.50173 23945 ft 387 kts 103°
2026-04-22 18:10 39.95736 -73.46779 24240 ft 389 kts 103°
2026-04-22 18:10 39.95036 -73.43398 24540 ft 391 kts 103°
2026-04-22 18:10 39.94322 -73.39965 24825 ft 394 kts 103°
2026-04-22 18:10 39.93602 -73.36503 25109 ft 396 kts 103°
2026-04-22 18:11 39.92881 -73.33041 25412 ft 398 kts 103°
2026-04-22 18:11 39.92150 -73.29540 25706 ft 400 kts 104°
2026-04-22 18:11 39.91417 -73.26033 25987 ft 402 kts 104°
2026-04-22 18:11 39.90681 -73.22514 26267 ft 405 kts 104°
2026-04-22 18:12 39.89934 -73.18954 26548 ft 407 kts 104°
2026-04-22 18:12 39.89184 -73.15386 26837 ft 409 kts 104°
2026-04-22 18:12 39.88677 -73.12976 26999 ft 410 kts 104°
2026-04-22 18:12 39.87672 -73.08206 27334 ft 414 kts 104°
2026-04-22 18:13 39.86906 -73.04577 27581 ft 417 kts 104°
2026-04-22 18:13 39.86133 -73.00923 27847 ft 419 kts 104°
2026-04-22 18:13 39.85357 -72.97260 28123 ft 421 kts 104°
2026-04-22 18:13 39.84577 -72.93584 28409 ft 423 kts 104°
2026-04-22 18:14 39.83794 -72.89894 28668 ft 425 kts 104°
2026-04-22 18:14 39.83001 -72.86173 28899 ft 427 kts 104°
2026-04-22 18:14 39.81970 -72.82560 29044 ft 428 kts 121°
2026-04-22 18:14 39.80190 -72.79474 29166 ft 429 kts 137°
2026-04-22 18:15 39.78038 -72.76780 29260 ft 429 kts 138°
2026-04-22 18:15 39.75915 -72.73988 29373 ft 435 kts 134°
2026-04-22 18:15 39.73924 -72.71019 29599 ft 438 kts 131°
2026-04-22 18:15 39.72002 -72.67932 29945 ft 438 kts 130°
2026-04-22 18:16 39.70094 -72.64816 30130 ft 443 kts 130°
2026-04-22 18:16 39.66160 -72.58545 30174 ft 460 kts 131°
2026-04-22 18:17 39.61936 -72.52063 30185 ft 479 kts 132°
2026-04-22 18:17 39.57546 -72.45451 30159 ft 487 kts 133°
2026-04-22 18:18 39.53062 -72.38723 30165 ft 498 kts 133°
2026-04-22 18:18 39.48474 -72.31839 30168 ft 509 kts 133°
2026-04-22 18:19 39.43823 -72.24865 30174 ft 519 kts 133°
2026-04-22 18:19 39.39060 -72.17735 30171 ft 528 kts 133°
2026-04-22 18:20 39.34220 -72.10507 30170 ft 535 kts 133°
2026-04-22 18:20 39.29322 -72.03212 30172 ft 541 kts 133°
2026-04-22 18:21 39.24358 -71.95837 30177 ft 546 kts 133°
2026-04-22 18:21 39.19363 -71.88432 30173 ft 549 kts 133°
2026-04-22 18:22 39.14322 -71.80976 30179 ft 553 kts 133°
2026-04-22 18:22 39.09255 -71.73501 30178 ft 555 kts 133°
2026-04-22 18:23 39.04160 -71.66002 30184 ft 557 kts 133°
2026-04-22 18:23 38.99049 -71.58498 30160 ft 559 kts 133°
2026-04-22 18:24 38.91354 -71.47232 30189 ft 560 kts 133°
2026-04-22 18:25 38.83662 -71.36012 30184 ft 560 kts 133°
2026-04-22 18:25 38.78501 -71.28507 30196 ft 560 kts 133°
2026-04-22 18:26 38.70759 -71.17282 30188 ft 560 kts 133°
2026-04-22 18:26 38.65607 -71.09831 30209 ft 559 kts 133°
2026-04-22 18:27 38.60447 -71.02390 30198 ft 559 kts 134°
2026-04-22 18:27 38.55308 -70.94996 30214 ft 559 kts 134°
2026-04-22 18:28 38.50147 -70.87587 30219 ft 559 kts 134°
2026-04-22 18:28 38.44978 -70.80183 30213 ft 559 kts 134°
2026-04-22 18:29 38.39797 -70.72779 30213 ft 559 kts 134°
2026-04-22 18:29 38.34617 -70.65395 30219 ft 558 kts 134°
2026-04-22 18:30 38.26845 -70.54347 30231 ft 558 kts 134°
2026-04-22 18:31 38.21650 -70.46983 30233 ft 559 kts 134°
2026-04-22 18:31 38.16452 -70.39630 30232 ft 559 kts 134°
2026-04-22 18:32 38.11235 -70.32303 30213 ft 558 kts 135°
2026-04-22 18:32 38.05948 -70.25081 30238 ft 557 kts 135°
2026-04-22 18:33 38.00673 -70.17958 30242 ft 557 kts 135°
2026-04-22 18:33 37.95375 -70.10792 30236 ft 557 kts 135°
2026-04-22 18:34 37.90088 -70.03623 30237 ft 557 kts 135°
2026-04-22 18:34 37.84806 -69.96466 30238 ft 557 kts 135°
2026-04-22 18:35 37.79508 -69.89308 30235 ft 557 kts 135°
2026-04-22 18:35 37.74207 -69.82166 30249 ft 556 kts 135°
2026-04-22 18:36 37.68900 -69.75031 30241 ft 556 kts 135°
2026-04-22 18:36 37.63606 -69.67933 30243 ft 556 kts 135°
2026-04-22 18:37 37.58288 -69.60817 30242 ft 556 kts 136°
2026-04-22 18:37 37.53880 -69.54931 30247 ft 556 kts 136°
2026-04-22 18:38 37.47660 -69.46642 30251 ft 555 kts 136°
2026-04-22 18:38 37.42353 -69.39588 30247 ft 555 kts 136°
2026-04-22 18:39 37.34417 -69.29068 30249 ft 555 kts 136°
2026-04-22 18:39 37.29098 -69.22037 30250 ft 555 kts 136°
2026-04-22 18:40 37.23769 -69.15007 30255 ft 555 kts 136°
2026-04-22 18:40 37.18474 -69.08041 30247 ft 554 kts 136°
2026-04-22 18:41 37.13157 -69.01058 30250 ft 554 kts 136°
2026-04-22 18:41 37.07834 -68.94080 30255 ft 554 kts 136°
2026-04-22 18:42 37.02502 -68.87105 30249 ft 554 kts 136°
2026-04-22 18:42 36.97165 -68.80143 30255 ft 554 kts 136°
2026-04-22 18:43 36.91825 -68.73191 30239 ft 554 kts 136°
2026-04-22 18:43 36.86481 -68.66249 30257 ft 554 kts 136°
2026-04-22 18:44 36.82027 -68.60473 30251 ft 555 kts 136°
2026-04-22 18:44 36.76668 -68.53535 30253 ft 555 kts 136°
2026-04-22 18:45 36.71299 -68.46601 30250 ft 555 kts 136°
2026-04-22 18:45 36.65937 -68.39690 30257 ft 555 kts 136°
2026-04-22 18:46 36.60568 -68.32784 30245 ft 555 kts 136°
2026-04-22 18:46 36.55170 -68.26022 30246 ft 551 kts 140°
2026-04-22 18:47 36.49423 -68.19948 30244 ft 532 kts 146°
2026-04-22 18:47 36.43417 -68.14588 30260 ft 533 kts 148°
2026-04-22 18:48 36.37358 -68.09187 30262 ft 539 kts 146°
2026-04-22 18:48 36.31371 -68.03501 30263 ft 544 kts 145°
2026-04-22 18:49 36.25418 -67.97657 30262 ft 547 kts 144°
2026-04-22 18:49 36.19421 -67.91775 30260 ft 550 kts 144°
2026-04-22 18:50 36.13384 -67.85920 30264 ft 552 kts 145°
2026-04-22 18:50 36.07315 -67.80077 30257 ft 553 kts 145°
2026-04-22 18:51 36.01270 -67.74266 30248 ft 555 kts 145°
2026-04-22 18:51 35.95176 -67.68418 30259 ft 556 kts 145°
2026-04-22 18:52 35.89062 -67.62559 30251 ft 556 kts 146°
2026-04-22 18:52 35.82949 -67.56713 30255 ft 556 kts 146°
2026-04-22 18:53 35.76846 -67.50885 29985 ft 551 kts 146°
2026-04-22 18:53 35.73843 -67.48017 29315 ft 545 kts 146°
2026-04-22 18:53 35.70862 -67.45174 28629 ft 539 kts 146°
2026-04-22 18:54 35.67905 -67.42362 27938 ft 534 kts 146°
2026-04-22 18:54 35.64978 -67.39582 27265 ft 529 kts 146°
2026-04-22 18:54 35.62083 -67.36837 26645 ft 523 kts 146°
2026-04-22 18:54 35.59206 -67.34111 26086 ft 518 kts 145°
2026-04-22 18:55 35.56374 -67.31429 25520 ft 513 kts 145°
2026-04-22 18:55 35.53587 -67.28792 24992 ft 508 kts 145°
2026-04-22 18:55 35.50795 -67.26152 24457 ft 504 kts 145°
2026-04-22 18:55 35.48036 -67.23544 23942 ft 499 kts 145°
2026-04-22 18:56 35.45293 -67.20954 23375 ft 494 kts 145°
2026-04-22 18:56 35.42583 -67.18397 22807 ft 489 kts 145°
2026-04-22 18:56 35.39899 -67.15866 22225 ft 485 kts 145°
2026-04-22 18:56 35.37223 -67.13346 21611 ft 482 kts 145°
2026-04-22 18:57 35.34580 -67.10859 21047 ft 478 kts 145°
2026-04-22 18:57 35.31948 -67.08385 20520 ft 475 kts 144°
2026-04-22 18:57 35.29343 -67.05940 20329 ft 480 kts 144°
2026-04-22 18:57 35.26702 -67.03461 20249 ft 477 kts 144°
2026-04-22 18:58 35.24081 -67.01002 20243 ft 472 kts 144°
2026-04-22 18:58 35.21478 -66.98562 20243 ft 472 kts 144°
2026-04-22 18:58 35.18868 -66.96118 20237 ft 474 kts 144°
2026-04-22 18:58 35.16242 -66.93662 20245 ft 474 kts 144°
2026-04-22 18:59 35.13624 -66.91215 20247 ft 475 kts 144°
2026-04-22 18:59 35.10992 -66.88756 20247 ft 476 kts 144°
2026-04-22 18:59 35.08362 -66.86302 20245 ft 476 kts 144°
2026-04-22 18:59 35.05731 -66.83849 20241 ft 476 kts 144°
2026-04-22 19:00 35.03101 -66.81398 20237 ft 475 kts 145°
2026-04-22 19:00 35.00482 -66.78958 20237 ft 475 kts 144°
2026-04-22 19:00 34.97857 -66.76517 20235 ft 474 kts 144°
2026-04-22 19:00 34.95233 -66.74077 20238 ft 474 kts 144°
2026-04-22 19:01 34.92613 -66.71644 20241 ft 473 kts 145°
2026-04-22 19:01 34.89993 -66.69212 20227 ft 473 kts 144°
2026-04-22 19:01 34.87373 -66.66785 20235 ft 472 kts 145°
2026-04-22 19:01 34.84732 -66.64451 20080 ft 464 kts 147°
2026-04-22 19:02 34.82116 -66.62285 19310 ft 457 kts 149°
2026-04-22 19:02 34.79463 -66.60189 18449 ft 458 kts 149°
2026-04-22 19:02 34.76763 -66.58097 17703 ft 459 kts 149°
2026-04-22 19:02 34.74077 -66.56015 17146 ft 456 kts 149°
2026-04-22 19:03 34.71416 -66.53936 16660 ft 452 kts 149°
2026-04-22 19:03 34.68796 -66.51869 16189 ft 448 kts 148°
2026-04-22 19:03 34.66197 -66.49804 15681 ft 445 kts 148°
2026-04-22 19:03 34.63619 -66.47744 15195 ft 442 kts 148°
2026-04-22 19:04 34.61055 -66.45692 14746 ft 439 kts 148°
2026-04-22 19:04 34.58517 -66.43659 14308 ft 435 kts 148°
2026-04-22 19:04 34.56000 -66.41644 13838 ft 432 kts 148°
2026-04-22 19:04 34.53494 -66.39642 13358 ft 429 kts 148°
2026-04-22 19:05 34.51005 -66.37656 12898 ft 426 kts 148°
2026-04-22 19:05 34.48547 -66.35697 12481 ft 422 kts 148°
2026-04-22 19:05 34.46090 -66.33742 12095 ft 418 kts 148°
2026-04-22 19:05 34.43644 -66.31797 12055 ft 422 kts 148°
2026-04-22 19:06 34.41216 -66.29869 12051 ft 421 kts 148°
2026-04-22 19:06 34.38740 -66.27902 12042 ft 419 kts 148°
2026-04-22 19:06 34.36340 -66.25998 12044 ft 418 kts 148°
2026-04-22 19:07 34.31476 -66.22141 12042 ft 418 kts 148°
2026-04-22 19:07 34.29042 -66.20212 12040 ft 418 kts 148°
2026-04-22 19:07 34.26614 -66.18290 12042 ft 418 kts 148°
2026-04-22 19:07 34.24180 -66.16366 12039 ft 418 kts 148°
2026-04-22 19:08 34.21746 -66.14443 12037 ft 417 kts 148°
2026-04-22 19:08 34.19321 -66.12527 12039 ft 417 kts 148°
2026-04-22 19:08 34.16886 -66.10606 12035 ft 417 kts 148°
2026-04-22 19:08 34.14456 -66.08690 12040 ft 417 kts 148°
2026-04-22 19:09 34.12025 -66.06774 12038 ft 417 kts 148°
2026-04-22 19:09 34.09595 -66.04861 12038 ft 417 kts 148°
2026-04-22 19:09 34.07982 -66.03592 12033 ft 417 kts 148°
2026-04-22 19:09 34.04726 -66.01032 12032 ft 417 kts 148°
2026-04-22 19:10 34.02321 -65.99142 12042 ft 417 kts 148°
2026-04-22 19:10 33.99860 -65.97210 12040 ft 417 kts 148°
2026-04-22 19:10 33.97471 -65.95334 12039 ft 417 kts 148°
2026-04-22 19:10 33.95017 -65.93409 12042 ft 416 kts 148°
2026-04-22 19:11 33.92610 -65.91522 12045 ft 416 kts 148°
2026-04-22 19:11 33.90183 -65.89621 12041 ft 416 kts 148°
2026-04-22 19:11 33.87721 -65.87694 12037 ft 416 kts 148°
2026-04-22 19:11 33.85328 -65.85822 12035 ft 416 kts 148°
2026-04-22 19:12 33.82906 -65.83929 12038 ft 416 kts 148°
2026-04-22 19:12 33.80476 -65.82031 12038 ft 416 kts 148°
2026-04-22 19:12 33.78050 -65.80138 12034 ft 416 kts 148°
2026-04-22 19:12 33.75618 -65.78242 12028 ft 416 kts 147°
2026-04-22 19:13 33.73190 -65.76351 12031 ft 416 kts 148°
2026-04-22 19:13 33.70760 -65.74458 12036 ft 415 kts 148°
2026-04-22 19:13 33.68333 -65.72569 12034 ft 415 kts 148°
2026-04-22 19:13 33.65908 -65.70682 12035 ft 415 kts 148°
2026-04-22 19:14 33.63486 -65.68799 12039 ft 415 kts 148°
2026-04-22 19:14 33.61065 -65.66917 12034 ft 415 kts 148°
2026-04-22 19:14 33.58642 -65.65036 12032 ft 415 kts 148°
2026-04-22 19:14 33.56249 -65.63180 12039 ft 415 kts 148°
2026-04-22 19:15 33.54606 -65.61906 12037 ft 415 kts 148°
2026-04-22 19:15 33.51394 -65.59417 12035 ft 415 kts 147°
2026-04-22 19:15 33.48964 -65.57537 12032 ft 415 kts 147°
2026-04-22 19:15 33.46555 -65.55673 12021 ft 407 kts 147°
2026-04-22 19:16 33.44214 -65.53864 12018 ft 393 kts 148°
2026-04-22 19:16 33.41960 -65.52123 12010 ft 379 kts 148°
2026-04-22 19:16 33.39776 -65.50439 12011 ft 365 kts 148°
2026-04-22 19:16 33.37687 -65.48827 12010 ft 351 kts 148°
2026-04-22 19:17 33.35680 -65.47280 12010 ft 336 kts 148°
2026-04-22 19:17 33.33755 -65.45796 12007 ft 321 kts 148°
2026-04-22 19:17 33.31922 -65.44384 12003 ft 306 kts 148°
2026-04-22 19:17 33.30182 -65.43044 12003 ft 289 kts 148°
2026-04-22 19:18 33.28526 -65.41769 12012 ft 279 kts 148°
2026-04-22 19:18 33.26913 -65.40527 12061 ft 273 kts 148°
2026-04-22 19:18 33.25317 -65.39300 12137 ft 274 kts 148°
2026-04-22 19:18 33.23728 -65.38078 12108 ft 275 kts 148°
2026-04-22 19:19 33.22122 -65.36842 12064 ft 274 kts 148°
2026-04-22 19:19 33.20522 -65.35612 12044 ft 273 kts 148°
2026-04-22 19:19 33.18928 -65.34388 12035 ft 271 kts 148°
2026-04-22 19:19 33.17343 -65.33173 12024 ft 270 kts 148°
2026-04-22 19:20 33.15765 -65.31962 12022 ft 269 kts 148°
2026-04-22 19:20 33.14186 -65.30751 12026 ft 269 kts 148°
2026-04-22 19:20 33.12608 -65.29541 12031 ft 270 kts 148°
2026-04-22 19:20 33.11028 -65.28329 12031 ft 270 kts 147°
2026-04-22 19:21 33.09444 -65.27116 12030 ft 271 kts 148°
2026-04-22 19:21 33.07854 -65.25899 12027 ft 271 kts 147°
2026-04-22 19:21 33.06265 -65.24674 12024 ft 271 kts 145°
2026-04-22 19:21 33.04827 -65.23270 11946 ft 270 kts 136°
2026-04-22 19:22 33.03517 -65.21679 11587 ft 268 kts 131°
2026-04-22 19:22 33.02279 -65.20025 11156 ft 266 kts 130°
2026-04-22 19:22 33.01063 -65.18373 10730 ft 264 kts 130°
2026-04-22 19:22 32.99851 -65.16736 10322 ft 262 kts 130°
2026-04-22 19:23 32.98640 -65.15119 9894 ft 260 kts 130°
2026-04-22 19:23 32.97433 -65.13524 9445 ft 258 kts 130°
2026-04-22 19:23 32.96230 -65.11949 8999 ft 257 kts 130°
2026-04-22 19:23 32.95025 -65.10383 8571 ft 255 kts 131°
2026-04-22 19:24 32.93834 -65.08843 8158 ft 252 kts 131°
2026-04-22 19:24 32.92647 -65.07310 7729 ft 251 kts 131°
2026-04-22 19:24 32.91462 -65.05785 7281 ft 251 kts 131°
2026-04-22 19:24 32.90286 -65.04275 6906 ft 247 kts 131°
2026-04-22 19:25 32.89114 -65.02773 6458 ft 247 kts 131°
2026-04-22 19:25 32.87949 -65.01280 6007 ft 247 kts 131°
2026-04-22 19:25 32.86789 -64.99799 5699 ft 240 kts 132°
2026-04-22 19:25 32.85657 -64.98353 5306 ft 238 kts 132°
2026-04-22 19:26 32.84521 -64.96898 4799 ft 242 kts 131°
2026-04-22 19:26 32.83401 -64.95473 4487 ft 236 kts 131°
2026-04-22 19:26 32.82278 -64.94043 4154 ft 231 kts 131°
2026-04-22 19:26 32.81199 -64.92670 3791 ft 229 kts 131°
2026-04-22 19:27 32.80110 -64.91281 3311 ft 231 kts 130°
2026-04-22 19:27 32.79013 -64.89882 3067 ft 234 kts 130°
2026-04-22 19:27 32.77900 -64.88467 3019 ft 232 kts 130°
2026-04-22 19:27 32.76807 -64.87077 2989 ft 229 kts 130°
2026-04-22 19:28 32.75725 -64.85697 3018 ft 229 kts 130°
2026-04-22 19:28 32.74637 -64.84311 3013 ft 230 kts 130°
2026-04-22 19:28 32.73548 -64.82927 3017 ft 230 kts 129°
2026-04-22 19:28 32.72448 -64.81528 3017 ft 232 kts 129°
2026-04-22 19:29 32.71343 -64.80126 3019 ft 232 kts 130°
2026-04-22 19:29 32.70241 -64.78725 3021 ft 233 kts 129°
2026-04-22 19:29 32.69132 -64.77318 3015 ft 234 kts 130°
2026-04-22 19:29 32.68018 -64.75906 3004 ft 233 kts 130°
2026-04-22 19:30 32.67658 -64.75449 3009 ft 232 kts 129°
2026-04-22 19:30 32.65832 -64.73134 3012 ft 230 kts 130°
2026-04-22 19:30 32.64737 -64.71748 2984 ft 228 kts 130°
2026-04-22 19:30 32.63656 -64.70375 3013 ft 227 kts 129°
2026-04-22 19:31 32.62575 -64.69002 3016 ft 230 kts 130°
2026-04-22 19:31 32.61475 -64.67608 3009 ft 232 kts 129°
2026-04-22 19:31 32.60367 -64.66206 3008 ft 234 kts 129°
2026-04-22 19:31 32.59248 -64.64793 3014 ft 235 kts 129°
2026-04-22 19:32 32.58503 -64.63853 3006 ft 235 kts 129°
2026-04-22 19:32 32.57385 -64.62440 3002 ft 234 kts 129°
2026-04-22 19:32 32.56277 -64.61039 3000 ft 233 kts 130°
2026-04-22 19:32 32.55167 -64.59636 2982 ft 232 kts 129°
2026-04-22 19:33 32.54084 -64.58268 2976 ft 221 kts 129°
2026-04-22 19:33 32.53060 -64.56977 2970 ft 210 kts 129°
2026-04-22 19:33 32.52075 -64.55731 3007 ft 204 kts 129°
2026-04-22 19:33 32.51094 -64.54492 3009 ft 207 kts 129°
2026-04-22 19:34 32.50106 -64.53248 3040 ft 207 kts 129°
2026-04-22 19:34 32.49144 -64.52037 2993 ft 200 kts 129°
2026-04-22 19:34 32.48189 -64.50832 3000 ft 198 kts 129°
2026-04-22 19:34 32.47264 -64.49666 3018 ft 199 kts 129°
2026-04-22 19:35 32.46303 -64.48453 2998 ft 200 kts 129°
2026-04-22 19:35 32.45347 -64.47249 3011 ft 201 kts 130°
2026-04-22 19:35 32.44390 -64.46044 3008 ft 202 kts 129°
2026-04-22 19:35 32.43426 -64.44832 3000 ft 202 kts 131°
2026-04-22 19:36 32.42308 -64.43877 2972 ft 199 kts 162°
2026-04-22 19:36 32.40934 -64.43961 3046 ft 203 kts 197°
2026-04-22 19:36 32.39546 -64.44396 3003 ft 207 kts 194°
2026-04-22 19:36 32.38152 -64.44765 2901 ft 204 kts 193°
2026-04-22 19:37 32.36776 -64.45118 2517 ft 205 kts 193°
2026-04-22 19:37 32.35388 -64.45472 2165 ft 202 kts 192°
2026-04-22 19:37 32.34054 -64.45888 1781 ft 198 kts 207°
2026-04-22 19:37 32.33160 -64.46983 1505 ft 179 kts 259°
2026-04-22 19:38 32.33095 -64.48446 1481 ft 176 kts 284°
2026-04-22 19:38 32.33297 -64.49795 1475 ft 163 kts 288°
2026-04-22 19:38 32.33529 -64.51127 1363 ft 176 kts 288°
2026-04-22 19:38 32.33802 -64.52651 1335 ft 200 kts 286°
2026-04-22 19:39 32.34094 -64.54314 1439 ft 211 kts 286°
2026-04-22 19:39 32.34388 -64.56013 1522 ft 211 kts 286°
2026-04-22 19:39 32.34666 -64.57653 1529 ft 192 kts 287°
2026-04-22 19:39 32.34885 -64.59098 1397 ft 168 kts 285°
2026-04-22 19:40 32.35022 -64.60403 1099 ft 153 kts 282°
2026-04-22 19:40 32.35189 -64.61743 1041 ft 170 kts 288°
2026-04-22 19:40 32.35428 -64.63013 821 ft 150 kts 290°
2026-04-22 19:40 32.35679 -64.64152 563 ft 134 kts 294°
2026-04-22 19:41 32.35943 -64.65215 324 ft 140 kts 287°
2026-04-22 19:41 32.36128 -64.66309 40 ft 126 kts 286°
2026-04-22 19:41 32.36290 -64.67171 10 ft 91 kts 282°
2026-04-22 19:41 32.36382 -64.67722 7 ft 63 kts 281°
2026-04-22 19:42 32.36466 -64.68183 11 ft 48 kts 281°
2026-04-22 19:42 32.36504 -64.68431 11 ft 10 kts 280°
2026-04-22 19:42 32.36529 -64.68585 10 ft 28 kts 281°
2026-04-22 19:42 32.36579 -64.68877 10 ft 44 kts 282°
2026-04-22 19:43 32.36572 -64.69320 8 ft 13 kts 245°
2026-04-22 19:43 32.36550 -64.69368 8 ft 0 kts 245°
2026-04-22 19:45 32.36546 -64.69378 8 ft 5 kts 245°
2026-04-22 19:45 32.36519 -64.69446 8 ft 13 kts 246°
2026-04-22 19:46 32.36477 -64.69568 8 ft 18 kts 248°
2026-04-22 19:46 32.36425 -64.69717 9 ft 19 kts 247°
2026-04-22 19:46 32.36366 -64.69881 9 ft 24 kts 246°
2026-04-22 19:46 32.36327 -64.69991 9 ft 10 kts 247°
2026-04-22 19:47 32.36295 -64.70082 9 ft 13 kts 248°
2026-04-22 19:47 32.36274 -64.70159 9 ft 0 kts 264°
2026-04-22 19:47 32.36273 -64.70173 9 ft 3 kts 261°
2026-04-22 19:47 32.36264 -64.70210 9 ft 6 kts 251°
2026-04-22 19:48 32.36251 -64.70251 10 ft 3 kts 250°
2026-04-22 19:48 32.36242 -64.70280 11 ft 4 kts 249°
2026-04-22 19:48 32.36234 -64.70305 8 ft 0 kts 250°
2026-04-22 19:48 32.36233 -64.70308 9 ft 0 kts 250°